timestamp,wind_dir_avg,wind_spd_max_dir,wind_spd_avg,wind_spd_gust,battery_voltage,lat,long
2017-10-14 00:00:00+00:00,273.0,270.0,6.25,6.64,12.6,47.59359,-54.27349
2017-10-14 00:10:00+00:00,273.0,273.0,4.86,5.4,12.6,47.59359,-54.27349
2017-10-14 00:20:00+00:00,253.0,250.0,4.86,5.3,12.7,47.59359,-54.27349
2017-10-14 00:30:00+00:00,256.0,256.0,5.07,5.72,12.7,47.59359,-54.27349
2017-10-14 00:40:00+00:00,268.0,272.0,5.64,6.29,12.7,47.59359,-54.27349
2017-10-14 00:50:00+00:00,284.0,286.0,5.7,6.32,12.7,47.59359,-54.27349
2017-10-14 01:00:00+00:00,283.0,283.0,5.19,5.9,12.6,47.59359,-54.27349
2017-10-14 01:10:00+00:00,281.0,281.0,4.94,5.5,12.6,47.59359,-54.27349
2017-10-14 01:20:00+00:00,279.0,272.0,3.78,4.67,12.7,47.59359,-54.27349
2017-10-14 01:30:00+00:00,298.0,293.0,4.16,4.67,12.7,47.59359,-54.27349
2017-10-14 01:40:00+00:00,274.0,276.0,4.44,4.9,12.7,47.59359,-54.27349
2017-10-14 01:50:00+00:00,261.0,259.0,5.58,6.08,12.7,47.59359,-54.27349
2017-10-14 02:00:00+00:00,277.0,275.0,5.77,6.35,12.6,47.59359,-54.27349
2017-10-14 02:10:00+00:00,275.0,277.0,6.34,7.0,12.6,47.59359,-54.27349
2017-10-14 02:20:00+00:00,269.0,271.0,6.4,6.92,12.7,47.59359,-54.27349
2017-10-14 02:30:00+00:00,261.0,259.0,6.63,7.2,12.7,47.59359,-54.27349
2017-10-14 02:40:00+00:00,278.0,280.0,6.26,7.21,12.7,47.59359,-54.27349
2017-10-14 02:50:00+00:00,281.0,280.0,5.74,8.04,12.7,47.59359,-54.27349
2017-10-14 03:00:00+00:00,269.0,267.0,5.32,5.77,12.6,47.59359,-54.27349
2017-10-14 03:10:00+00:00,288.0,286.0,5.96,6.95,12.6,47.59359,-54.27349
2017-10-14 03:20:00+00:00,296.0,292.0,5.04,5.98,12.6,47.59359,-54.27349
2017-10-14 03:30:00+00:00,299.0,297.0,5.43,5.83,12.6,47.59359,-54.27349
2017-10-14 03:40:00+00:00,298.0,298.0,5.12,5.65,12.6,47.59359,-54.27349
2017-10-14 03:50:00+00:00,301.0,300.0,4.61,5.13,12.7,47.59359,-54.27349
2017-10-14 04:00:00+00:00,299.0,297.0,3.46,3.89,12.6,47.59359,-54.27349
2017-10-14 04:10:00+00:00,300.0,306.0,3.52,4.04,12.6,47.59359,-54.27349
2017-10-14 04:20:00+00:00,296.0,300.0,3.39,3.96,12.6,47.59359,-54.27349
2017-10-14 04:30:00+00:00,287.0,287.0,3.3,3.9,12.6,47.59359,-54.27349
2017-10-14 04:40:00+00:00,286.0,287.0,4.19,4.68,12.6,47.59359,-54.27349
2017-10-14 04:50:00+00:00,285.0,291.0,4.25,4.8,12.6,47.59359,-54.27349
2017-10-14 05:00:00+00:00,287.0,286.0,4.08,4.61,12.6,47.59359,-54.27349
2017-10-14 05:10:00+00:00,277.0,271.0,4.44,5.38,12.6,47.59359,-54.27349
2017-10-14 05:20:00+00:00,272.0,276.0,4.7,5.37,12.6,47.59359,-54.27349
2017-10-14 05:30:00+00:00,275.0,278.0,5.05,6.13,12.6,47.59359,-54.27349
2017-10-14 05:40:00+00:00,270.0,276.0,4.76,5.36,12.6,47.59359,-54.27349
2017-10-14 05:50:00+00:00,279.0,284.0,4.98,5.7,12.6,47.59359,-54.27349
2017-10-14 06:00:00+00:00,269.0,268.0,5.51,6.59,12.6,47.59359,-54.27349
2017-10-14 06:10:00+00:00,266.0,270.0,5.65,6.47,12.5,47.59359,-54.27349
2017-10-14 06:20:00+00:00,276.0,274.0,5.62,6.21,12.6,47.59359,-54.27349
2017-10-14 06:30:00+00:00,275.0,276.0,6.07,7.0,12.6,47.59359,-54.27349
2017-10-14 06:40:00+00:00,271.0,274.0,7.05,7.84,12.6,47.59359,-54.27349
2017-10-14 06:50:00+00:00,269.0,261.0,5.97,6.86,12.6,47.59359,-54.27349
2017-10-14 07:00:00+00:00,261.0,262.0,7.09,7.78,12.6,47.59359,-54.27349
2017-10-14 07:10:00+00:00,262.0,262.0,7.13,8.75,12.5,47.59359,-54.27349
2017-10-14 07:20:00+00:00,259.0,258.0,7.51,8.73,12.6,47.59359,-54.27349
2017-10-14 07:30:00+00:00,265.0,261.0,8.12,9.35,12.6,47.59359,-54.27349
2017-10-14 07:40:00+00:00,262.0,263.0,8.62,9.83,12.6,47.59359,-54.27349
2017-10-14 07:50:00+00:00,269.0,274.0,8.62,9.63,12.6,47.59359,-54.27349
2017-10-14 08:00:00+00:00,264.0,263.0,8.26,9.26,12.6,47.59359,-54.27349
2017-10-14 08:10:00+00:00,264.0,271.0,8.12,9.58,12.5,47.59359,-54.27349
2017-10-14 08:20:00+00:00,256.0,257.0,8.13,9.68,12.6,47.59359,-54.27349
2017-10-14 08:30:00+00:00,257.0,261.0,7.73,8.28,12.6,47.59359,-54.27349
2017-10-14 08:40:00+00:00,265.0,267.0,6.88,8.09,12.6,47.59359,-54.27349
2017-10-14 08:50:00+00:00,259.0,258.0,6.92,8.29,12.6,47.59359,-54.27349
2017-10-14 09:00:00+00:00,258.0,258.0,6.71,7.53,12.5,47.59359,-54.27349
2017-10-14 09:10:00+00:00,261.0,264.0,6.49,7.23,12.5,47.59359,-54.27349
2017-10-14 09:20:00+00:00,246.0,249.0,7.93,9.1,12.6,47.59359,-54.27349
2017-10-14 09:30:00+00:00,252.0,244.0,6.68,7.95,12.6,47.59359,-54.27349
2017-10-14 09:40:00+00:00,246.0,250.0,7.22,8.28,12.6,47.59359,-54.27349
2017-10-14 09:50:00+00:00,252.0,249.0,6.39,7.9,12.6,47.59359,-54.27349
2017-10-14 10:00:00+00:00,256.0,260.0,7.68,9.32,12.6,47.59359,-54.27349
2017-10-14 10:10:00+00:00,249.0,247.0,8.94,10.42,12.6,47.59359,-54.27349
2017-10-14 10:20:00+00:00,238.0,245.0,7.74,8.95,12.8,47.59359,-54.27349
2017-10-14 10:30:00+00:00,252.0,255.0,7.85,9.29,13.2,47.59359,-54.27349
2017-10-14 10:40:00+00:00,240.0,234.0,8.55,9.41,13.2,47.59359,-54.27349
2017-10-14 10:50:00+00:00,239.0,241.0,9.23,10.25,13.1,47.59359,-54.27349
2017-10-14 11:00:00+00:00,239.0,237.0,8.61,10.65,13.0,47.59359,-54.27349
2017-10-14 11:10:00+00:00,238.0,232.0,8.76,10.04,13.0,47.59359,-54.27349
2017-10-14 11:20:00+00:00,243.0,242.0,8.71,10.62,13.0,47.59359,-54.27349
2017-10-14 11:30:00+00:00,250.0,247.0,10.76,12.83,13.0,47.59359,-54.27349
2017-10-14 11:40:00+00:00,254.0,258.0,10.45,12.83,13.1,47.59359,-54.27349
2017-10-14 11:50:00+00:00,247.0,249.0,9.31,11.11,13.2,47.59359,-54.27349
2017-10-14 12:00:00+00:00,255.0,260.0,10.41,11.79,13.2,47.59359,-54.27349
2017-10-14 12:10:00+00:00,254.0,260.0,12.25,13.91,13.1,47.59359,-54.27349
2017-10-14 12:20:00+00:00,261.0,260.0,11.84,13.54,13.3,47.59359,-54.27349
2017-10-14 12:30:00+00:00,253.0,258.0,10.85,12.11,13.4,47.59359,-54.27349
2017-10-14 12:40:00+00:00,248.0,246.0,11.19,13.23,13.5,47.59359,-54.27349
2017-10-14 12:50:00+00:00,256.0,260.0,13.02,15.57,13.7,47.59359,-54.27349
2017-10-14 13:00:00+00:00,253.0,254.0,11.96,13.51,13.6,47.59359,-54.27349
2017-10-14 13:10:00+00:00,252.0,249.0,12.62,14.63,13.4,47.59359,-54.27349
2017-10-14 13:20:00+00:00,254.0,252.0,13.12,15.32,13.7,47.59359,-54.27349
2017-10-14 13:30:00+00:00,255.0,255.0,12.58,14.23,13.7,47.59359,-54.27349
2017-10-14 13:40:00+00:00,252.0,253.0,13.51,15.38,13.8,47.59359,-54.27349
2017-10-14 13:50:00+00:00,254.0,248.0,10.48,11.81,13.8,47.59359,-54.27349
2017-10-14 14:00:00+00:00,246.0,252.0,10.89,13.26,13.8,47.59359,-54.27349
2017-10-14 14:10:00+00:00,246.0,244.0,11.63,13.37,13.7,47.59359,-54.27349
2017-10-14 14:20:00+00:00,249.0,250.0,10.77,12.89,13.9,47.59359,-54.27349
2017-10-14 14:30:00+00:00,247.0,249.0,11.61,13.23,13.9,47.59359,-54.27349
2017-10-14 14:40:00+00:00,244.0,249.0,11.73,13.43,14.0,47.59359,-54.27349
2017-10-14 14:50:00+00:00,245.0,250.0,12.88,15.34,14.0,47.59359,-54.27349
2017-10-14 15:00:00+00:00,244.0,241.0,11.37,13.65,13.9,47.59359,-54.27349
2017-10-14 15:10:00+00:00,250.0,259.0,11.42,14.38,13.8,47.59359,-54.27349
2017-10-14 15:20:00+00:00,247.0,251.0,11.91,14.17,14.0,47.59359,-54.27349
2017-10-14 15:30:00+00:00,252.0,249.0,11.4,13.08,14.1,47.59359,-54.27349
2017-10-14 15:40:00+00:00,252.0,253.0,13.73,15.89,14.1,47.59359,-54.27349
2017-10-14 15:50:00+00:00,251.0,252.0,12.66,15.54,14.1,47.59359,-54.27349
2017-10-14 16:00:00+00:00,241.0,248.0,11.13,12.88,13.8,47.59359,-54.27349
2017-10-14 16:10:00+00:00,240.0,256.0,11.11,13.05,13.8,47.59359,-54.27349
2017-10-14 16:20:00+00:00,245.0,250.0,12.16,15.58,14.1,47.59359,-54.27349
2017-10-14 16:30:00+00:00,242.0,242.0,12.29,14.32,14.0,47.59359,-54.27349
2017-10-14 16:40:00+00:00,245.0,240.0,11.7,14.14,14.0,47.59359,-54.27349
2017-10-14 16:50:00+00:00,245.0,253.0,10.74,14.74,14.1,47.59359,-54.27349
2017-10-14 17:00:00+00:00,243.0,244.0,11.38,13.94,14.0,47.59359,-54.27349
2017-10-14 17:10:00+00:00,241.0,236.0,10.11,13.26,13.8,47.59359,-54.27349
2017-10-14 17:20:00+00:00,244.0,235.0,12.87,15.03,14.0,47.59359,-54.27349
2017-10-14 17:30:00+00:00,246.0,250.0,11.08,14.5,13.9,47.59359,-54.27349
2017-10-14 17:40:00+00:00,247.0,247.0,12.84,14.96,13.8,47.59359,-54.27349
2017-10-14 17:50:00+00:00,241.0,245.0,12.03,16.86,13.8,47.59359,-54.27349
2017-10-14 18:00:00+00:00,243.0,244.0,11.89,15.72,13.7,47.59359,-54.27349
2017-10-14 18:10:00+00:00,245.0,252.0,12.62,14.79,13.5,47.59359,-54.27349
2017-10-14 18:20:00+00:00,249.0,250.0,13.4,14.99,13.6,47.59359,-54.27349
2017-10-14 18:30:00+00:00,246.0,244.0,11.96,14.27,13.5,47.59359,-54.27349
2017-10-14 18:40:00+00:00,250.0,250.0,14.04,17.11,13.5,47.59359,-54.27349
2017-10-14 18:50:00+00:00,249.0,248.0,13.84,16.13,13.5,47.59359,-54.27349
2017-10-14 19:00:00+00:00,248.0,251.0,15.18,17.13,13.4,47.59359,-54.27349
2017-10-14 19:10:00+00:00,247.0,245.0,13.54,15.86,13.3,47.59359,-54.27349
2017-10-14 19:20:00+00:00,248.0,252.0,12.65,14.72,13.4,47.59359,-54.27349
2017-10-14 19:30:00+00:00,250.0,245.0,12.06,14.94,13.3,47.59359,-54.27349
2017-10-14 19:40:00+00:00,251.0,253.0,13.65,15.35,13.3,47.59359,-54.27349
2017-10-14 19:50:00+00:00,250.0,253.0,12.28,14.95,13.2,47.59359,-54.27349
2017-10-14 20:00:00+00:00,245.0,248.0,11.61,13.72,13.1,47.59359,-54.27349
2017-10-14 20:10:00+00:00,245.0,251.0,12.03,13.74,12.9,47.59359,-54.27349
2017-10-14 20:20:00+00:00,240.0,242.0,12.11,14.13,13.0,47.59359,-54.27349
2017-10-14 20:30:00+00:00,246.0,250.0,11.4,13.84,12.9,47.59359,-54.27349
2017-10-14 20:40:00+00:00,243.0,251.0,11.74,14.22,12.9,47.59359,-54.27349
2017-10-14 20:50:00+00:00,243.0,240.0,12.38,14.75,12.9,47.59359,-54.27349
2017-10-14 21:00:00+00:00,245.0,247.0,10.74,12.58,12.8,47.59359,-54.27349
2017-10-14 21:10:00+00:00,246.0,252.0,10.68,12.97,12.6,47.59359,-54.27349
2017-10-14 21:20:00+00:00,245.0,247.0,10.63,12.84,12.8,47.59359,-54.27349
2017-10-14 21:30:00+00:00,249.0,249.0,11.58,13.19,12.8,47.59359,-54.27349
2017-10-14 21:40:00+00:00,249.0,241.0,11.59,13.3,12.8,47.59359,-54.27349
2017-10-14 21:50:00+00:00,253.0,260.0,11.63,13.13,12.8,47.59359,-54.27349
2017-10-14 22:00:00+00:00,247.0,249.0,10.78,12.38,12.7,47.59359,-54.27349
2017-10-14 22:10:00+00:00,244.0,237.0,10.79,12.55,12.6,47.59359,-54.27349
2017-10-14 22:20:00+00:00,244.0,248.0,11.05,13.0,12.7,47.59359,-54.27349
2017-10-14 22:30:00+00:00,246.0,251.0,9.5,10.94,12.7,47.59359,-54.27349
2017-10-14 22:40:00+00:00,246.0,253.0,10.27,12.83,12.7,47.59359,-54.27349
2017-10-14 22:50:00+00:00,247.0,253.0,10.37,12.27,12.8,47.59359,-54.27349
2017-10-14 23:00:00+00:00,248.0,250.0,10.33,12.36,12.7,47.59359,-54.27349
2017-10-14 23:10:00+00:00,249.0,249.0,10.99,12.37,12.6,47.59359,-54.27349
2017-10-14 23:20:00+00:00,248.0,246.0,11.53,13.0,12.7,47.59359,-54.27349
2017-10-14 23:30:00+00:00,249.0,252.0,9.8,11.96,12.7,47.59359,-54.27349
2017-10-14 23:40:00+00:00,252.0,254.0,10.85,12.34,12.7,47.59359,-54.27349
2017-10-14 23:50:00+00:00,247.0,248.0,10.28,11.74,12.7,47.59359,-54.27349
